Regional Weather Roundup
Issued by NWS Albany, NY

Home | Current Version | Previous Version | Text Only | Print | Product List | Glossary On
Versions: 1 2 3 4 5 6 7 8 9 10 11 12 13 14 15 16 17 18 19 20 21 22 23 24 25 26 27 28 29 30 31 32 33 34 35 36 37 38 39 40 41 42 43
000
ASUS41 KALY 280510
RWRALY

NEW YORK STATE HOURLY WEATHER ROUNDUP
NATIONAL WEATHER SERVICE ALBANY NY
1200 AM EST SUN DEC 28 2014

NOTE: "FAIR" INDICATES FEW OR NO CLOUDS BELOW 12,000 FEET WITH NO
SIGNIFICANT WEATHER AND/OR NO OBSTRUCTIONS TO VISIBILITY.

NYZ032-033-038>043-046>054-057>066-NYZ062>081-280600-
EAST


CITY           SKY/WX    TMP DP  RH WIND       PRES   REMARKS
ALBANY         CLOUDY    47  34  60 S8        29.95F
GLENS FALLS    CLOUDY    43  34  70 SW6       29.92F
POUGHKEEPSIE   CLOUDY    44  35  70 CALM      30.03F
NEWBURGH       CLOUDY    46  34  61 CALM      30.03F
MONTGOMERY     CLOUDY    43  34  70 SW7       30.02F
WHITE PLAINS   PTCLDY    46  34  62 CALM      30.05F
ISLIP          MOCLDY    44  41  89 SW6       30.06F
NEW YORK CITY  MOCLDY    49  34  56 SW5       30.07F
CENTRAL PARK   CLOUDY    50  35  56 VRB7      30.10F
$$

NYZ005>009-017-018-044>046-055-056-280600-
CENTRAL


CITY           SKY/WX    TMP DP  RH WIND       PRES   REMARKS
FULTON         CLOUDY    51  35  54 S9        29.85F
SYRACUSE       CLOUDY    53  35  50 S10       29.87F
ROME           LGT RAIN  47  38  71 SE7       29.90F
ELMIRA         CLOUDY    50  35  56 SW3       29.90F
BINGHAMTON     CLOUDY    46  32  58 S9        29.92F
MONTICELLO     CLOUDY    43  34  70 SW3       30.00F
$$

NYZ026>034-041>043-280600-
NORTH


CITY           SKY/WX    TMP DP  RH WIND       PRES   REMARKS
WATERTOWN      CLOUDY    53  36  52 SW12      29.83F
FORT DRUM      NOT AVBL
MASSENA        LGT RAIN  51  41  68 SW15G29   29.79F
SARANAC LAKE   CLOUDY    41  37  86 SW10      29.79F
PLATTSBURGH    CLOUDY    44  35  70 S9        29.80F
$$

NYZ001>004-010>016-019>021-280600-
WEST


CITY           SKY/WX    TMP DP  RH WIND       PRES   REMARKS
NIAGARA FALLS  LGT RAIN  48  42  80 SW21G30   29.87F
BUFFALO        LGT RAIN  47  41  80 SW21G30   29.89S
DUNKIRK        LGT RAIN  48  43  82 SW12      29.92F
JAMESTOWN      CLOUDY    43  39  87 SW9       29.93S
WELLSVILLE     LGT RAIN  47  34  60 SW13G21   29.92F
ROCHESTER      CLOUDY    52  36  54 SW10      29.87R
PENN YAN       CLOUDY    49  36  61 SW9       29.88F
$$

             KEY
       WCI = WIND CHILL INDEX
       VSB = VISIBILITY
       HX  = HEAT INDEX
$$



USA.gov is the U.S. government's official web portal to all federal, state and local government web resources and services.